Wetbulb
44.28 44.19 43.05 42.91 42.87 42.88 42.75 42.85 40.62 35.47 35.34 37.75 36.10 37.78 37.72 37.62 35.61 37.45 37.58 39.63 40.78 41.31 41.60 41.67 41.95 42.98 43.80 44.26 44.88 44.59 44.50 44.63 44.75 45.28 45.85 46.16 46.62 46.99
43.05 42.29 42.14 41.58 41.37 41.46 41.10 41.48 40.43 39.39 36.49 37.48 37.40 36.35 36.33 36.29 35.56 36.91 36.10 37.62 38.90 39.78 40.31 40.37 40.54 41.80 43.06 43.02 42.93 42.81 42.91 43.06 43.34 44.04 44.69 45.12 45.26 45.58
41.39 41.30 40.78 40.84 40.01 39.94 40.04 39.67 38.67 38.45 36.76 34.92 36.05 35.96 34.94 34.52 35.34 36.25 36.87 36.36 37.08 37.99 38.72 39.08 39.39 40.26 41.11 41.67 41.46 41.31 41.24 41.52 41.86 42.47 43.17 43.66 43.85 44.26
40.06 39.95 39.49 39.13 39.06 39.00 38.44 37.61 37.17 37.12 36.69 32.24 34.12 33.39 33.92 34.23 34.28 34.30 35.19 36.12 35.85 36.26 36.86 37.51 37.94 38.50 39.48 40.24 39.88 39.68 39.60 39.91 40.33 40.78 41.35 41.84 42.24 42.82
40.19 39.16 38.82 37.78 37.03 36.91 36.87 35.95 35.85 35.52 36.02 33.68 32.07 33.77 33.19 33.25 32.93 33.52 33.86 34.39 35.55 35.15 35.73 35.88 36.53 36.98 37.76 39.10 38.88 38.59 38.50 38.67 39.23 39.56 39.73 40.08 40.52 41.30
39.86 39.18 38.79 37.33 37.01 36.09 35.33 34.77 34.60 33.64 33.49 33.69 31.92 31.39 31.73 32.33 32.51 31.71 31.65 33.03 33.02 35.21 35.76 35.10 35.71 35.90 36.49 37.08 37.99 37.42 37.57 37.92 38.53 38.93 38.87 38.82 38.91 39.73
38.69 38.52 38.26 37.89 38.91 38.05 35.32 34.33 33.83 32.62 32.04 31.51 30.92 30.73 29.74 29.39 29.56 31.36 30.49 31.47 32.02 32.57 31.99 33.30 33.15 33.63 33.55 35.61 36.73 36.29 36.69 37.15 37.69 38.11 38.32 38.32 38.29 38.79
36.82 36.95 37.22 36.84 36.84 37.73 36.70 37.34 35.57 32.56 31.12 30.53 30.46 29.01 29.08 29.80 30.27 30.36 29.96 29.02 27.95 32.69 30.23 30.89 32.09 31.54 32.45 32.80 35.59 36.43 36.17 36.51 36.85 37.19 37.31 37.42 37.56 37.92
35.41 35.24 34.79 35.26 35.93 35.07 35.67 35.60 35.34 35.83 35.87 32.63 30.35 30.04 29.27 30.54 30.90 29.75 29.82 29.32 28.66 30.49 30.18 28.68 31.22 29.85 31.88 33.91 35.01 35.29 35.48 35.77 36.10 36.41 36.51 36.66 36.84 37.15
36.00 35.12 34.27 34.40 34.63 34.21 33.34 32.43 32.39 32.89 33.35 33.32 32.59 31.78 31.74 32.64 31.90 32.02 30.75 29.88 30.43 31.11 30.77 26.37 29.24 28.17 30.23 31.64 34.41 34.74 34.94 35.18 35.48 35.82 35.93 36.02 36.16 36.23
35.03 35.14 34.93 34.54 35.92 36.89 33.35 31.64 31.46 31.50 34.59 34.65 34.56 34.77 34.98 35.10 34.28 31.40 29.46 28.42 27.40 28.12 30.22 26.87 27.55 27.25 28.52 29.21 31.07 34.27 34.40 34.54 34.91 35.27 35.47 35.51 35.60 35.38
33.27 33.69 37.21 34.88 36.31 36.82 34.20 32.58 30.23 30.68 31.22 30.29 30.82 32.55 33.54 33.54 34.78 32.58 31.04 27.40 27.28 25.90 29.43 26.16 26.54 26.68 25.00 29.02 28.80 29.79 29.70 33.65 34.16 34.67 34.87 34.84 35.12 31.27
32.45 32.32 33.72 37.74 37.62 37.80 37.72 34.17 31.95 32.01 31.29 30.30 30.19 30.69 31.14 31.37 31.92 31.67 31.22 29.75 27.04 26.02 28.28 27.25 26.33 26.10 25.47 24.90 26.83 27.85 28.09 28.76 29.25 30.38 33.56 33.71 34.38 33.56
32.03 32.31 32.77 35.10 36.90 36.90 36.98 35.93 34.88 33.19 30.50 29.94 29.21 28.83 28.64 29.11 30.15 30.84 30.88 29.78 29.34 27.90 28.46 28.78 23.98 24.67 22.49 21.98 23.26 26.57 26.99 28.20 28.29 28.18 28.67 31.28 33.10 33.79
33.32 33.24 33.97 34.18 36.26 35.65 36.98 35.29 34.00 31.07 29.66 28.85 27.90 28.53 29.61 29.49 29.83 29.36 29.60 29.28 28.40 28.26 29.42 28.64 26.64 25.84 24.25 21.54 21.59 24.20 25.45 26.67 27.55 26.93 26.98 27.41 27.97 28.71
34.61 32.76 33.18 32.96 34.78 34.23 34.47 34.67 31.19 30.78 29.78 29.10 28.73 29.50 29.53 28.11 26.97 28.16 26.87 27.21 25.71 25.09 27.76 28.08 27.40 25.61 22.63 23.88 23.54 23.02 25.38 23.21 26.18 25.60 26.33 27.08 28.07 28.51
32.31 31.55 30.77 30.24 29.86 31.11 31.06 31.47 31.17 30.62 29.91 29.64 29.21 28.58 27.09 26.40 26.22 27.39 26.79 26.07 23.14 23.43 23.84 25.54 26.84 26.43 25.67 24.82 20.58 23.89 23.71 24.09 24.73 24.82 25.24 24.87 26.24 27.46
31.25 28.36 27.68 27.57 27.49 29.12 29.50 30.01 30.98 31.00 30.71 29.73 28.74 27.49 25.96 25.50 25.63 26.24 26.36 24.61 22.73 23.14 22.29 24.07 23.81 21.60 22.16 24.98 27.70 22.89 23.34 22.90 23.90 24.46 25.17 23.46 23.65 25.97
30.01 28.07 27.23 26.88 27.13 28.94 29.34 28.66 27.82 29.30 29.29 27.90 27.46 26.86 26.27 25.76 25.58 24.58 24.69 24.68 23.16 22.49 21.90 23.63 22.15 19.49 14.77 17.62 23.83 28.03 22.80 23.36 23.73 23.37 23.89 23.38 22.75 24.44
30.03 28.23 27.78 27.92 27.81 28.14 28.49 27.90 27.47 27.51 27.11 27.03 26.42 26.31 26.00 25.37 24.03 23.75 24.00 21.89 21.59 20.94 19.77 21.18 21.12 21.30 16.16 18.22 15.72 23.45 27.70 22.95 22.79 22.08 22.72 24.04 25.41 29.50
29.08 29.59 27.91 28.01 27.94 28.36 28.62 28.48 27.21 26.28 25.99 25.61 25.35 25.52 25.55 24.73 23.52 23.64 23.72 25.27 24.02 20.36 16.89 18.88 23.49 27.36 21.17 21.20 14.74 19.96 23.85 28.53 26.12 23.02 22.82 21.58 21.67 21.93
28.16 28.72 28.93 28.46 28.40 28.47 28.43 28.27 27.41 26.60 25.65 24.94 24.55 24.70 24.89 24.93 23.28 22.75 22.78 21.07 21.61 21.17 20.83 22.82 22.95 20.86 16.16 17.82 16.96 19.28 21.28 23.52 26.40 27.59 27.92 26.47 21.54 16.16
29.12 28.56 29.23 28.78 28.79 28.85 28.76 28.12 27.21 26.29 25.54 24.79 24.37 23.96 24.07 22.38 23.47 23.42 22.70 21.64 20.55 18.62 19.04 17.28 18.67 19.48 19.41 19.61 19.02 17.06 19.65 20.96 21.96 21.85 22.82 28.04 28.20 28.15
MSLP
1029.28 1029.43 1029.48 1029.52 1029.65 1029.69 1030.03 1030.22 1030.53 1031.21 1031.93 1032.58 1033.25 1033.65 1033.73 1033.81 1034.22 1033.97 1034.00 1034.03 1033.74 1033.56 1033.39 1033.12 1032.77 1032.36 1031.94 1031.56 1031.18 1030.98 1030.68 1030.29 1029.88 1029.32 1028.73 1028.12 1027.53 1026.92
1029.24 1029.45 1029.49 1029.62 1029.80 1029.98 1030.17 1030.20 1030.39 1030.61 1031.23 1032.08 1032.69 1033.35 1033.70 1033.73 1034.17 1034.05 1034.25 1034.17 1034.04 1033.78 1033.61 1033.46 1033.16 1032.71 1032.27 1031.98 1031.71 1031.44 1031.12 1030.77 1030.36 1029.78 1029.19 1028.60 1028.05 1027.33
1029.03 1029.23 1029.38 1029.57 1029.84 1030.06 1030.18 1030.32 1030.44 1030.50 1030.98 1032.32 1032.78 1033.35 1033.67 1033.73 1033.86 1033.92 1034.04 1034.02 1034.03 1034.08 1033.82 1033.63 1033.40 1033.09 1032.76 1032.36 1032.09 1031.90 1031.62 1031.26 1030.76 1030.19 1029.66 1029.12 1028.55 1027.75
1028.78 1029.01 1029.19 1029.55 1029.79 1030.01 1030.24 1030.39 1030.49 1030.56 1030.83 1031.95 1032.62 1033.25 1033.47 1033.66 1033.78 1033.85 1033.83 1033.85 1033.93 1034.14 1033.99 1033.77 1033.59 1033.32 1033.06 1032.80 1032.58 1032.41 1032.13 1031.59 1031.06 1030.56 1030.09 1029.60 1029.04 1028.26
1028.50 1028.82 1029.07 1029.47 1029.75 1029.99 1030.25 1030.45 1030.72 1030.92 1030.81 1031.47 1032.40 1032.98 1033.36 1033.73 1033.89 1033.81 1033.87 1033.91 1033.90 1034.04 1033.83 1033.77 1033.69 1033.55 1033.28 1032.98 1032.90 1032.75 1032.38 1031.85 1031.30 1030.80 1030.48 1029.98 1029.42 1028.70
1028.08 1028.51 1028.84 1029.24 1029.61 1029.91 1030.27 1030.54 1030.73 1031.13 1031.17 1031.50 1032.28 1032.79 1033.18 1033.61 1033.61 1033.63 1033.77 1033.75 1033.85 1033.76 1033.65 1033.81 1033.63 1033.50 1033.44 1033.24 1032.96 1032.91 1032.48 1032.06 1031.59 1031.11 1030.73 1030.23 1029.69 1029.03
1028.07 1028.38 1028.67 1029.03 1029.32 1029.71 1029.94 1030.34 1030.61 1030.93 1031.33 1031.66 1032.11 1032.49 1032.92 1033.46 1033.46 1033.50 1033.64 1033.65 1033.83 1033.99 1033.79 1033.46 1033.56 1033.30 1033.27 1033.15 1033.17 1033.04 1032.64 1032.33 1031.87 1031.36 1030.93 1030.43 1029.90 1029.23
1027.72 1028.24 1028.57 1029.18 1029.43 1029.62 1029.86 1030.01 1030.41 1030.60 1031.07 1031.56 1031.90 1032.28 1032.64 1033.00 1033.26 1033.48 1033.54 1033.60 1033.64 1033.79 1033.83 1033.36 1033.38 1033.33 1033.23 1033.14 1033.25 1033.14 1032.78 1032.50 1032.02 1031.54 1031.16 1030.64 1030.13 1029.43
1027.68 1028.07 1028.51 1029.01 1029.36 1029.68 1029.95 1030.11 1030.41 1030.60 1030.60 1031.02 1031.64 1032.06 1032.38 1032.64 1033.07 1033.44 1033.42 1033.57 1033.62 1033.76 1033.91 1033.44 1033.25 1033.32 1033.17 1032.92 1033.16 1033.08 1032.85 1032.57 1032.09 1031.73 1031.31 1030.80 1030.35 1029.63
1027.53 1027.88 1028.38 1028.93 1029.34 1029.60 1029.96 1030.27 1030.60 1030.66 1030.88 1031.06 1031.31 1031.58 1032.13 1032.54 1032.98 1033.21 1033.44 1033.46 1033.61 1033.79 1034.04 1033.80 1033.37 1033.34 1033.15 1032.94 1032.95 1032.96 1032.76 1032.44 1032.11 1031.78 1031.36 1030.93 1030.46 1029.74
1027.74 1028.02 1028.38 1028.65 1028.78 1028.98 1029.47 1029.82 1030.18 1030.55 1030.75 1031.14 1031.26 1031.51 1031.89 1032.38 1032.66 1033.17 1033.63 1033.59 1033.42 1033.60 1034.03 1034.04 1033.51 1033.46 1033.17 1032.95 1032.91 1032.87 1032.69 1032.42 1032.14 1031.84 1031.44 1031.10 1030.57 1029.96
1027.50 1027.64 1027.62 1028.03 1028.19 1028.34 1029.00 1029.45 1029.81 1030.09 1030.49 1031.23 1031.63 1031.90 1032.15 1032.59 1032.78 1033.00 1033.26 1033.33 1033.27 1033.82 1034.11 1034.23 1033.91 1033.84 1033.43 1032.92 1033.11 1032.94 1032.91 1032.55 1032.25 1031.92 1031.58 1031.23 1030.70 1030.12
1026.69 1027.05 1027.23 1027.25 1027.61 1027.88 1028.32 1028.89 1029.10 1029.66 1030.31 1030.92 1031.37 1031.63 1031.97 1032.33 1032.73 1032.92 1033.01 1033.24 1033.44 1033.79 1034.16 1034.21 1034.22 1034.15 1034.01 1033.79 1033.42 1033.02 1033.00 1032.71 1032.39 1032.07 1031.73 1031.37 1030.78 1030.19
1025.74 1026.24 1026.61 1026.95 1027.15 1027.52 1027.84 1028.35 1028.68 1029.22 1029.95 1030.48 1030.89 1031.18 1031.58 1031.96 1032.41 1032.64 1032.87 1033.23 1033.41 1033.73 1034.01 1034.19 1034.46 1034.60 1034.65 1034.33 1033.80 1033.32 1033.11 1032.66 1032.43 1032.31 1031.97 1031.54 1031.00 1030.44
1024.99 1025.26 1025.77 1026.24 1026.66 1027.09 1027.30 1027.83 1028.28 1029.22 1029.53 1029.90 1030.38 1030.75 1031.14 1031.58 1032.02 1032.65 1032.92 1033.23 1033.51 1033.84 1033.93 1034.17 1034.43 1034.61 1034.69 1034.66 1034.37 1033.85 1033.23 1032.75 1032.58 1032.49 1032.19 1031.73 1031.22 1030.67
1024.44 1024.82 1025.55 1025.99 1026.33 1026.60 1027.03 1027.38 1028.03 1028.50 1028.87 1029.46 1030.04 1030.52 1030.94 1031.50 1032.04 1032.45 1032.90 1033.29 1033.59 1033.80 1033.89 1033.98 1034.11 1034.42 1034.57 1034.42 1034.27 1034.05 1033.45 1033.23 1032.88 1032.74 1032.35 1031.83 1031.32 1030.87
1024.03 1024.61 1025.11 1025.49 1025.96 1026.20 1026.61 1027.13 1027.46 1027.65 1028.39 1029.16 1029.84 1030.25 1030.86 1031.43 1031.92 1032.12 1032.50 1032.95 1033.45 1033.65 1033.83 1033.97 1033.92 1034.06 1034.20 1034.19 1034.23 1033.73 1033.52 1033.34 1033.09 1032.83 1032.37 1031.93 1031.50 1031.04
1023.60 1023.81 1024.40 1024.87 1025.26 1025.61 1025.94 1026.49 1026.80 1027.18 1027.96 1028.68 1029.32 1029.94 1030.56 1031.15 1031.62 1031.98 1032.32 1032.71 1033.15 1033.41 1033.60 1033.70 1034.02 1034.20 1033.85 1033.57 1033.59 1033.64 1033.59 1033.45 1033.25 1032.89 1032.47 1032.19 1031.63 1031.15
1022.87 1023.22 1023.58 1024.09 1024.59 1025.10 1025.41 1025.97 1026.55 1026.91 1027.50 1028.30 1028.93 1029.56 1030.23 1030.76 1031.20 1031.68 1032.08 1032.37 1032.85 1033.06 1033.29 1033.52 1033.94 1034.00 1034.07 1033.84 1033.32 1033.37 1033.62 1033.60 1033.36 1032.94 1032.67 1032.35 1031.88 1031.31
1022.35 1022.59 1022.98 1023.40 1023.98 1024.56 1025.12 1025.63 1026.26 1026.94 1027.48 1028.04 1028.61 1029.21 1029.82 1030.34 1030.90 1031.31 1031.74 1032.06 1032.50 1032.94 1033.18 1033.40 1033.53 1033.57 1033.81 1033.85 1033.94 1033.56 1033.38 1033.50 1033.31 1033.06 1032.71 1032.27 1031.75 1030.83
1021.70 1021.83 1022.22 1022.78 1023.37 1024.00 1024.58 1025.18 1025.82 1026.54 1027.11 1027.70 1028.25 1028.87 1029.46 1029.97 1030.54 1030.92 1031.27 1031.70 1032.06 1032.61 1032.96 1033.19 1033.00 1032.97 1033.68 1033.96 1034.11 1033.75 1033.05 1032.87 1032.93 1032.99 1032.75 1032.23 1031.40 1030.60
1021.12 1021.45 1021.74 1022.17 1022.70 1023.33 1024.01 1024.66 1025.32 1025.94 1026.59 1027.18 1027.73 1028.34 1029.05 1029.69 1030.15 1030.53 1030.94 1031.56 1031.75 1032.23 1032.60 1032.74 1032.95 1033.44 1033.76 1033.81 1033.81 1033.60 1033.14 1032.86 1032.66 1032.56 1032.26 1032.19 1032.08 1031.51
1020.79 1020.93 1021.29 1021.64 1022.13 1022.71 1023.31 1023.93 1024.57 1025.23 1025.88 1026.55 1027.20 1027.90 1028.52 1029.36 1029.81 1030.11 1030.71 1031.10 1031.52 1031.96 1032.26 1032.77 1032.92 1033.14 1033.35 1033.53 1033.58 1033.50 1033.26 1032.94 1032.70 1032.38 1032.15 1031.62 1031.40 1031.17
Wind_Speed
4 4 3 2 2 1 1 3 3 4 5 5 3 2 2 3 2 3 4 7 10 11 12 13 14 14 15 15 16 18 20 21 23 23 24 24 25 25
3 5 4 3 3 2 2 2 1 2 3 3 2 5 3 3 2 1 3 2 8 9 10 12 13 13 14 15 15 17 19 21 22 23 24 24 25 26
5 6 6 5 4 3 3 2 3 2 4 1 4 4 4 3 4 2 1 1 3 8 8 9 11 11 12 13 15 17 18 20 21 22 23 24 25 26
7 7 7 5 5 4 3 4 3 1 4 7 5 4 4 3 2 2 1 1 1 5 5 7 9 10 9 11 13 15 17 18 20 21 23 24 25 26
8 8 7 7 6 4 3 4 3 2 2 5 4 3 3 3 3 2 2 2 2 2 2 2 5 7 8 8 11 14 16 17 19 21 21 23 24 25
7 7 8 8 7 6 5 5 5 3 3 4 4 4 4 3 2 2 4 2 2 1 1 3 3 3 6 6 8 14 15 18 18 20 20 22 24 24
6 7 6 7 10 9 5 5 5 4 3 3 4 3 3 3 4 3 2 1 3 1 3 1 2 2 2 4 7 14 16 17 18 20 20 21 23 24
8 8 6 7 7 11 8 9 7 5 5 4 4 4 5 4 3 3 2 2 2 2 3 3 1 2 1 1 4 12 15 16 18 19 19 22 22 24
6 7 7 7 9 7 9 8 8 9 7 5 4 4 4 4 4 3 3 1 0 2 3 3 1 3 2 3 4 11 14 16 17 17 18 20 22 23
7 8 8 7 7 8 8 8 8 5 5 5 5 5 5 5 4 1 2 1 1 2 1 2 2 3 3 0 3 11 13 15 17 16 17 19 21 22
8 9 10 10 14 19 11 9 8 6 9 10 7 9 9 11 6 4 3 3 2 2 2 2 2 3 2 1 4 10 13 14 15 14 18 18 21 20
8 9 18 12 19 21 11 10 10 10 8 6 5 7 8 7 9 4 1 2 2 1 2 2 3 3 3 2 3 3 4 12 14 15 17 19 20 7
6 6 6 19 19 22 19 9 11 9 12 8 7 6 5 5 3 4 3 1 1 1 2 1 1 2 2 3 4 2 4 4 4 6 14 18 19 16
9 7 8 18 19 19 17 16 18 15 7 6 6 6 5 5 4 4 4 2 2 2 4 3 0 1 1 2 3 4 4 4 3 5 5 12 15 17
7 12 15 17 20 18 20 20 17 8 8 8 7 6 6 4 5 4 4 4 4 3 2 3 1 0 1 2 3 3 6 4 4 4 6 7 6 5
13 10 11 13 13 10 10 13 9 9 8 8 6 4 4 4 3 4 3 4 2 2 3 4 3 3 2 2 1 3 4 3 4 4 5 5 5 4
9 7 7 7 8 7 7 7 9 10 8 7 7 5 5 5 5 4 2 3 2 3 3 2 4 3 3 3 2 3 2 3 3 4 5 4 4 5
8 7 8 8 9 7 8 7 6 11 7 7 6 7 6 6 6 4 3 3 3 2 2 2 2 1 1 4 8 2 2 2 4 4 5 5 6 6
6 9 10 10 9 6 6 8 5 5 9 7 7 7 6 6 9 5 5 4 2 2 2 2 2 2 0 2 1 4 2 3 5 4 4 4 6 8
7 7 7 8 9 9 7 6 7 6 7 7 7 7 6 6 5 6 5 3 3 3 2 2 2 2 4 3 1 2 7 3 3 5 6 5 7 15
8 7 10 9 9 8 7 7 9 9 9 8 7 6 6 6 5 5 5 10 8 3 3 2 4 5 2 3 1 3 3 7 6 4 6 7 6 4
7 6 7 8 9 9 9 8 8 10 9 8 8 7 6 6 6 5 5 3 3 3 3 3 3 3 2 3 3 3 3 2 5 11 12 9 3 5
5 8 6 8 9 8 9 9 10 9 9 9 8 7 7 6 5 5 4 3 3 3 3 2 2 3 2 2 5 2 5 6 3 4 4 11 11 14
Wind_Direction
220 206 220 176 211 187 251 184 183 172 184 158 161 171 149 110 23 50 68 34 35 30 29 28 26 26 25 26 29 23 17 12 10 7 7 5 6 2
195 202 204 173 177 166 201 205 246 260 128 113 183 141 176 136 114 95 96 216 40 31 29 27 24 24 28 29 24 16 11 10 8 7 6 5 4 2
200 208 195 181 184 179 180 177 188 224 132 83 119 151 166 171 153 149 181 309 103 25 29 28 25 22 21 17 21 18 13 11 8 6 5 5 1 360
200 208 195 188 186 176 173 184 165 218 135 151 151 164 181 177 142 177 176 155 49 39 20 28 23 21 16 14 24 18 13 9 6 4 4 3 360 358
208 208 197 190 191 177 179 153 123 171 128 135 137 156 139 180 187 200 198 174 213 236 355 41 6 10 19 15 25 12 7 4 2 3 1 2 359 356
213 205 203 197 191 177 176 175 159 171 162 140 142 164 171 148 248 210 191 188 189 341 282 165 297 306 14 0 27 10 1 360 359 360 359 358 356 354
205 208 203 199 198 185 173 173 165 169 163 154 159 153 172 162 205 146 258 208 149 209 314 230 320 313 35 8 13 12 358 356 357 358 357 358 354 352
204 198 196 164 175 184 191 179 179 172 174 170 173 180 184 183 131 188 187 231 189 94 328 287 147 303 14 77 356 356 0 360 357 356 357 357 355 350
195 189 185 189 185 176 182 181 195 204 202 163 179 186 162 170 156 183 180 207 290 47 329 283 93 313 21 4 57 358 360 358 360 357 355 355 354 350
205 185 179 177 188 180 189 187 197 187 189 198 183 160 155 150 164 188 138 126 224 154 341 273 16 325 343 316 109 3 355 356 358 357 354 355 353 351
190 189 194 196 199 201 194 190 189 186 185 192 178 166 163 167 171 148 202 211 182 149 132 316 346 331 294 333 22 354 355 351 353 354 357 356 354 353
203 205 201 195 204 204 197 192 189 184 165 160 162 165 166 195 196 237 210 212 124 225 110 299 357 358 327 85 358 341 351 346 351 354 356 355 354 349
198 196 202 212 210 213 198 199 190 165 181 175 183 179 178 173 193 200 204 187 143 239 104 68 337 342 352 335 297 14 337 328 335 347 350 351 353 357
197 198 202 213 211 211 212 201 188 182 174 182 185 181 179 184 188 171 147 160 74 54 107 108 353 55 353 298 321 340 324 318 347 339 349 344 344 349
208 201 196 209 211 210 213 196 185 191 186 183 187 189 185 172 147 146 144 165 141 168 171 142 201 24 264 258 283 316 330 331 10 343 341 334 332 334
203 206 197 199 203 194 199 192 182 191 182 180 186 179 149 132 144 169 166 163 164 167 176 177 196 154 268 273 288 290 311 332 332 342 327 316 325 330
181 171 187 185 197 202 190 204 188 182 180 178 188 160 160 160 187 163 153 138 174 169 171 174 212 225 249 264 279 266 296 316 340 319 324 322 322 331
202 175 183 186 195 198 180 187 180 173 165 164 164 165 172 179 184 164 161 161 177 172 160 157 176 271 300 259 213 284 311 347 317 311 313 326 320 329
216 191 186 187 189 186 176 168 160 154 154 165 166 173 178 179 189 176 183 182 177 160 170 144 195 167 188 259 218 183 328 320 312 310 325 315 312 318
216 190 190 181 183 185 175 163 156 161 168 169 171 173 176 176 180 183 188 176 156 176 149 167 190 204 173 215 214 288 323 263 294 312 313 307 290 292
213 200 189 182 179 179 176 169 168 173 172 172 171 172 176 176 183 189 185 193 191 156 167 202 206 188 97 58 10 263 258 217 263 287 311 311 314 304
204 198 183 183 180 180 179 176 174 180 175 172 168 168 176 185 184 181 180 185 183 176 194 178 131 136 160 185 242 275 275 285 314 293 292 284 274 303
216 186 178 179 177 176 179 179 177 174 173 172 166 168 171 182 186 174 181 177 167 163 158 175 179 159 196 204 255 250 273 282 285 298 285 289 298 294